This demonstration page uses our WeatherBlox Daily Observations layout. Learn more.

Left ArrowRight Arrow

Hourly Observations for September 11, 2015

Temp ( °F °C ) Dew Point ( °F °C ) Humidity (%) Winds ( mph kmh ) Pressure ( in mb ) Visibility ( mi km ) Precip ( " mm )
12:59 am 00:59 Cloudy 73 22.8 70 21.1 90 90 SW 5 7 29.78 1008 10 16 0.00 0.03
1:59 am 01:59 Cloudy 73 22.8 70 21.1 90 90 W 3 6 29.77 1008 8 13 0.00 0.00
2:28 am 02:28 Cloudy 74 23.3 71 21.7 91 91 W 6 9 29.77 1008 10 16 0.00 0.00
2:59 am 02:59 Cloudy 74 23.3 70 21.1 88 88 NNW 10 17 29.76 1008 9 14 0.00 0.00
3:29 am 03:29 Mostly Cloudy 73 22.8 69 20.6 87 87 NW 12 19 29.74 1007 9 14 0.00 0.00
3:59 am 03:59 Mostly Cloudy 72 22.2 68 20 87 87 NNW 12 19 29.75 1008 10 16 0.00 0.00
4:59 am 04:59 Mostly Cloudy 71 21.7 66 18.9 84 84 WNW 10 17 29.75 1007 10 16 0.00 0.00
5:59 am 05:59 Cloudy 71 21.7 66 18.9 84 84 NW 9 15 29.76 1008 10 16 0.00 0.00
6:59 am 06:59 Cloudy 70 21.1 66 18.9 87 87 NW 10 17 29.80 1009 10 16 0.00 0.00
7:59 am 07:59 Cloudy 70 21.1 66 18.9 87 87 NW 12 19 29.83 1010 9 14 0.00 0.00
8:59 am 08:59 Cloudy 71 21.7 65 18.3 81 81 NW 15 24 29.84 1011 10 16 0.00 0.00
9:43 am 09:43 Cloudy with Haze 72 22.2 65 18.3 79 79 NNW 13 20 29.85 1011 2 2 0.00 0.00
9:48 am 09:48 Mostly Cloudy 73 22.8 66 18.9 79 79 NW 14 22 29.85 1011 10 16 0.00 0.00
9:59 am 09:59 Mostly Cloudy 73 22.8 66 18.9 79 79 NW 12 19 29.86 1011 10 16 0.00 0.00
10:54 am 10:54 Mostly Cloudy 73 23 66 19 78 78 NW 8 13 29.88 1012 10 16 0.00 0.00
10:59 am 10:59 Mostly Cloudy 75 23.9 66 18.9 74 74 NNW 9 15 29.86 1011 10 16 0.00 0.00
11:48 am 11:48 Partly Cloudy 76 24.4 66 18.9 72 72 NW 9 15 29.85 1011 10 16 0.00 0.00
11:59 am 11:59 Partly Cloudy 79 26.1 67 19.4 67 67 NNW 8 13 29.86 1011 10 16 0.00 0.00
12:59 pm 12:59 Partly Cloudy 79 26.1 66 18.9 65 65 N 7 11 29.85 1011 10 16 0.00 0.00
1:59 pm 13:59 Partly Cloudy 81 27.2 67 19.4 62 62 WNW 9 15 29.84 1010 10 16 0.00 0.00
2:59 pm 14:59 Partly Cloudy 81 27.2 66 18.9 61 61 W 8 13 29.82 1010 10 16 0.00 0.00
3:59 pm 15:59 Mostly Sunny 82 27.8 64 17.8 55 55 W 12 19 29.81 1009 10 16 0.00 0.00
4:59 pm 16:59 Mostly Sunny 83 28.3 65 18.3 55 55 NNW 6 9 29.82 1010 10 16 0.00 0.00
5:59 pm 17:59 Partly Cloudy 81 27.2 67 19.4 62 62 ENE 5 7 29.81 1010 10 16 0.00 0.00
6:59 pm 18:59 Partly Cloudy 78 25.6 67 19.4 69 69 E 7 11 29.82 1010 10 16 0.00 0.00
7:59 pm 19:59 Partly Cloudy 75 23.9 68 20 79 79 E 3 6 29.83 1010 10 16 0.00 0.00
8:59 pm 20:59 Partly Cloudy 73 22.8 67 19.4 81 81 SSE 3 6 29.85 1011 10 16 0.00 0.00
9:59 pm 21:59 Partly Cloudy 72 22.2 67 19.4 84 84 Calm 29.85 1011 10 16 0.00 0.00
10:59 pm 22:59 Partly Cloudy 72 22.2 67 19.4 84 84 SSE 5 7 29.85 1011 10 16 0.00 0.00
11:59 pm 23:59 Partly Cloudy 73 22.8 67 19.4 81 81 SSE 6 9 29.85 1011 10 16 0.00 0.00

Powered by AerisWeather